TYM228 UUWW-UWUU

Flight info

Callsign TYM228
Flight time N/A
Altitude 39000
Route KOGOM3A KOGOM L94 EKPIR M864 INKEB L94 UNORO T788 NAMUD L994 DILUP DILUP3L
Aircraft B77W/H-SDE1E2E3FGHIJ2J3J4J5M1RWXY/LB1D1

Departure

Time 2026-05-05 15:21
Airport Vnukovo International Airport (UUWW)

Arrival

Time N/A
Airport Ufa International Airport (UWUU)
Time Latitude Longitude Altitude Speed Heading
2026-05-05 13:33 55.60174 37.28373 696 ft 0 kts 354°
2026-05-05 15:04 55.60168 37.28374 696 ft 2 kts 354°
2026-05-05 15:04 55.60153 37.28376 696 ft 2 kts 354°
2026-05-05 15:04 55.60138 37.28379 696 ft 2 kts 354°
2026-05-05 15:05 55.60109 37.28380 696 ft 2 kts 18°
2026-05-05 15:05 55.60095 37.28368 696 ft 2 kts 39°
2026-05-05 15:05 55.60085 37.28349 696 ft 2 kts 58°
2026-05-05 15:06 55.60079 37.28325 696 ft 2 kts 77°
2026-05-05 15:06 55.60078 37.28299 696 ft 2 kts 89°
2026-05-05 15:06 55.60078 37.28273 696 ft 2 kts 87°
2026-05-05 15:06 55.60077 37.28247 696 ft 2 kts 85°
2026-05-05 15:07 55.60076 37.28221 696 ft 2 kts 88°
2026-05-05 15:07 55.60075 37.28194 696 ft 2 kts 90°
2026-05-05 15:07 55.60076 37.28168 696 ft 2 kts 92°
2026-05-05 15:07 55.60077 37.28142 696 ft 2 kts 93°
2026-05-05 15:08 55.60078 37.28116 696 ft 1 kts 95°
2026-05-05 15:08 55.60078 37.28112 696 ft 0 kts 95°
2026-05-05 15:14 55.60078 37.28113 696 ft 0 kts 95°
2026-05-05 15:14 55.60077 37.28154 696 ft 6 kts 90°
2026-05-05 15:14 55.60080 37.28267 696 ft 11 kts 83°
2026-05-05 15:14 55.60098 37.28405 696 ft 11 kts 65°
2026-05-05 15:15 55.60141 37.28513 696 ft 10 kts 47°
2026-05-05 15:15 55.60188 37.28607 696 ft 9 kts 55°
2026-05-05 15:15 55.60200 37.28713 696 ft 8 kts 114°
2026-05-05 15:15 55.60163 37.28792 696 ft 8 kts 140°
2026-05-05 15:16 55.60117 37.28848 696 ft 7 kts 151°
2026-05-05 15:16 55.60067 37.28882 696 ft 7 kts 164°
2026-05-05 15:16 55.60018 37.28904 696 ft 7 kts 166°
2026-05-05 15:16 55.59971 37.28925 696 ft 6 kts 166°
2026-05-05 15:17 55.59924 37.28945 696 ft 7 kts 166°
2026-05-05 15:17 55.59871 37.28968 696 ft 8 kts 166°
2026-05-05 15:17 55.59814 37.28975 696 ft 8 kts 196°
2026-05-05 15:17 55.59774 37.28898 696 ft 9 kts 246°
2026-05-05 15:18 55.59763 37.28849 696 ft 0 kts 248°
2026-05-05 15:20 55.59763 37.28847 696 ft 1 kts 248°
2026-05-05 15:20 55.59737 37.28734 696 ft 21 kts 248°
2026-05-05 15:20 55.59593 37.28090 696 ft 102 kts 248°
2026-05-05 15:21 55.59231 37.26463 778 ft 178 kts 250°
2026-05-05 15:21 55.58805 37.24270 1522 ft 204 kts 245°
2026-05-05 15:21 55.57999 37.22184 2335 ft 212 kts 233°
2026-05-05 15:21 55.57086 37.20090 3117 ft 223 kts 235°
2026-05-05 15:22 55.56159 37.17861 3899 ft 236 kts 236°
2026-05-05 15:22 55.55215 37.15403 4690 ft 247 kts 246°
2026-05-05 15:22 55.54828 37.12474 5446 ft 251 kts 266°
2026-05-05 15:22 55.54802 37.09402 6193 ft 252 kts 269°
2026-05-05 15:23 55.55130 37.06319 6933 ft 258 kts 292°
2026-05-05 15:23 55.56256 37.03857 7657 ft 268 kts 320°
2026-05-05 15:23 55.57997 37.02592 8384 ft 282 kts 348°
2026-05-05 15:23 55.59964 37.02483 9091 ft 288 kts 358°
2026-05-05 15:24 55.61904 37.03355 9812 ft 302 kts 24°
2026-05-05 15:24 55.63555 37.05744 10548 ft 315 kts 50°
2026-05-05 15:24 55.64535 37.09245 11297 ft 320 kts 77°
2026-05-05 15:24 55.64638 37.13199 12026 ft 326 kts 96°
2026-05-05 15:25 55.64434 37.17181 12776 ft 329 kts 96°
2026-05-05 15:25 55.64032 37.21154 13532 ft 335 kts 107°
2026-05-05 15:25 55.63352 37.25153 14255 ft 345 kts 110°
2026-05-05 15:25 55.62601 37.29243 14914 ft 358 kts 110°
2026-05-05 15:26 55.61816 37.33501 15576 ft 370 kts 110°
2026-05-05 15:26 55.61015 37.37861 16237 ft 382 kts 110°
2026-05-05 15:26 55.60189 37.42359 16900 ft 394 kts 109°
2026-05-05 15:26 55.59325 37.47056 17563 ft 407 kts 109°
2026-05-05 15:27 55.58492 37.51846 18220 ft 417 kts 104°
2026-05-05 15:27 55.58053 37.57007 18896 ft 428 kts 93°
2026-05-05 15:27 55.58145 37.62408 19577 ft 439 kts 82°
2026-05-05 15:27 55.58771 37.67672 20241 ft 448 kts 72°
2026-05-05 15:28 55.59949 37.72801 20915 ft 456 kts 61°
2026-05-05 15:28 55.61386 37.77817 21592 ft 465 kts 66°
2026-05-05 15:28 55.62413 37.83237 22255 ft 470 kts 76°
2026-05-05 15:28 55.62944 37.88974 22936 ft 474 kts 85°
2026-05-05 15:29 55.62946 37.94785 23617 ft 480 kts 95°
2026-05-05 15:29 55.62539 38.00604 24308 ft 485 kts 99°
2026-05-05 15:29 55.61979 38.06590 25021 ft 491 kts 101°
2026-05-05 15:29 55.61354 38.12528 25699 ft 494 kts 101°
2026-05-05 15:30 55.60692 38.18460 26375 ft 498 kts 101°
2026-05-05 15:30 55.60003 38.24439 27057 ft 503 kts 102°
2026-05-05 15:30 55.59285 38.30572 27746 ft 508 kts 100°
2026-05-05 15:30 55.58907 38.36476 28337 ft 513 kts 91°
2026-05-05 15:31 55.59021 38.42934 28907 ft 518 kts 82°
2026-05-05 15:31 55.59663 38.49210 29460 ft 520 kts 73°
2026-05-05 15:31 55.60798 38.55220 30010 ft 520 kts 64°
2026-05-05 15:31 55.62408 38.60904 30570 ft 519 kts 56°
2026-05-05 15:32 55.64260 38.66368 31104 ft 520 kts 56°
2026-05-05 15:32 55.66132 38.71841 31627 ft 522 kts 57°
2026-05-05 15:32 55.68006 38.77376 32100 ft 524 kts 57°
2026-05-05 15:32 55.69861 38.82900 32497 ft 526 kts 57°
2026-05-05 15:33 55.71732 38.88519 32896 ft 528 kts 57°
2026-05-05 15:33 55.73788 38.93859 33288 ft 526 kts 49°
2026-05-05 15:33 55.76218 38.98741 33692 ft 525 kts 44°
2026-05-05 15:33 55.78737 39.03480 34089 ft 525 kts 44°
2026-05-05 15:34 55.81251 39.08198 34487 ft 525 kts 44°
2026-05-05 15:34 55.83688 39.13025 34866 ft 526 kts 50°
2026-05-05 15:34 55.85729 39.18358 35196 ft 527 kts 59°
2026-05-05 15:34 55.87457 39.24198 35541 ft 526 kts 62°
2026-05-05 15:35 55.89091 39.30031 35880 ft 525 kts 62°
2026-05-05 15:35 55.90704 39.35824 36216 ft 523 kts 62°
2026-05-05 15:35 55.92303 39.41586 36551 ft 521 kts 62°
2026-05-05 15:35 55.93918 39.47416 36958 ft 519 kts 62°
2026-05-05 15:36 55.95492 39.53115 37407 ft 517 kts 62°
2026-05-05 15:36 55.97074 39.58858 37868 ft 514 kts 62°
2026-05-05 15:36 55.98632 39.64529 38204 ft 513 kts 62°
2026-05-05 15:36 56.00220 39.70269 38466 ft 512 kts 64°
2026-05-05 15:37 56.01528 39.76086 38741 ft 511 kts 72°
2026-05-05 15:37 56.02718 39.88592 38811 ft 518 kts 87°
2026-05-05 15:38 56.03040 40.01545 38855 ft 524 kts 88°
2026-05-05 15:38 56.03278 40.14518 38832 ft 523 kts 89°
2026-05-05 15:39 56.03471 40.27557 38836 ft 525 kts 89°
2026-05-05 15:39 56.03635 40.40583 38847 ft 524 kts 89°
2026-05-05 15:40 56.03775 40.53537 38853 ft 528 kts 89°
2026-05-05 15:40 56.03898 40.66666 38857 ft 528 kts 90°
2026-05-05 15:41 56.04002 40.79652 38855 ft 528 kts 90°
2026-05-05 15:41 56.04091 40.92827 38845 ft 528 kts 90°
2026-05-05 15:42 56.04165 41.05933 38848 ft 530 kts 90°
2026-05-05 15:42 56.04224 41.19112 38858 ft 528 kts 90°
2026-05-05 15:43 56.04270 41.32194 38824 ft 527 kts 90°
2026-05-05 15:43 56.04301 41.45228 38841 ft 527 kts 90°
2026-05-05 15:44 56.04318 41.58334 38842 ft 527 kts 90°
2026-05-05 15:44 56.04322 41.71440 38824 ft 527 kts 91°
2026-05-05 15:45 56.04311 41.84536 38831 ft 528 kts 91°
2026-05-05 15:45 56.04287 41.97681 38823 ft 527 kts 90°
2026-05-05 15:46 56.04248 42.10706 38834 ft 526 kts 91°
2026-05-05 15:46 56.04196 42.23827 38843 ft 526 kts 91°
2026-05-05 15:47 56.04131 42.36867 38842 ft 524 kts 91°
2026-05-05 15:47 56.04052 42.49857 38846 ft 525 kts 91°
2026-05-05 15:48 56.03929 42.62843 38869 ft 525 kts 91°
2026-05-05 15:48 56.03761 42.75824 38847 ft 523 kts 92°
2026-05-05 15:49 56.03582 42.88784 38879 ft 523 kts 92°
2026-05-05 15:49 56.03390 43.01801 38838 ft 524 kts 92°
2026-05-05 15:50 56.03186 43.14743 38859 ft 524 kts 92°
2026-05-05 15:50 56.02968 43.27740 38862 ft 522 kts 92°
2026-05-05 15:51 56.03302 43.40647 38857 ft 523 kts 83°
2026-05-05 15:51 56.04187 43.53490 38818 ft 522 kts 83°
2026-05-05 15:52 56.05063 43.66371 38851 ft 524 kts 83°
2026-05-05 15:52 56.05918 43.79222 38837 ft 521 kts 83°
2026-05-05 15:53 56.06761 43.92131 38848 ft 522 kts 84°
2026-05-05 15:53 56.07585 44.04979 38861 ft 520 kts 84°
2026-05-05 15:54 56.08395 44.17847 38857 ft 522 kts 84°
2026-05-05 15:54 56.09193 44.30742 38848 ft 521 kts 84°
2026-05-05 15:55 56.09975 44.43605 38858 ft 522 kts 84°
2026-05-05 15:55 56.10745 44.56500 38848 ft 522 kts 84°
2026-05-05 15:56 56.11182 44.69338 38858 ft 521 kts 92°
2026-05-05 15:56 56.10946 44.82353 38847 ft 520 kts 93°
2026-05-05 15:57 56.10680 44.95196 38835 ft 520 kts 93°
2026-05-05 15:57 56.10393 45.08131 38835 ft 518 kts 93°
2026-05-05 15:58 56.10089 45.20966 38841 ft 520 kts 93°
2026-05-05 15:58 56.09780 45.33896 38840 ft 521 kts 93°
2026-05-05 15:59 56.09458 45.46812 38844 ft 522 kts 93°
2026-05-05 15:59 56.09123 45.59680 38844 ft 520 kts 92°
2026-05-05 16:00 56.08773 45.72626 38826 ft 522 kts 94°
2026-05-05 16:00 56.08409 45.85576 38857 ft 522 kts 94°
2026-05-05 16:01 56.08034 45.98430 38842 ft 521 kts 94°
2026-05-05 16:01 56.07641 46.11441 38858 ft 522 kts 94°
2026-05-05 16:02 56.07238 46.24301 38854 ft 522 kts 93°
2026-05-05 16:02 56.06820 46.37236 38847 ft 522 kts 93°
2026-05-05 16:03 56.06182 46.50130 38827 ft 522 kts 102°
2026-05-05 16:03 56.04023 46.62416 38839 ft 520 kts 111°
2026-05-05 16:04 56.01465 46.74501 38849 ft 519 kts 112°
2026-05-05 16:04 55.98896 46.86500 38847 ft 519 kts 112°
2026-05-05 16:05 55.96290 46.98574 38845 ft 519 kts 112°
2026-05-05 16:05 55.93693 47.10523 38876 ft 517 kts 112°
2026-05-05 16:06 55.91096 47.22395 38872 ft 517 kts 112°
2026-05-05 16:06 55.88463 47.34367 38869 ft 517 kts 112°
2026-05-05 16:07 55.85834 47.46247 38869 ft 516 kts 112°
2026-05-05 16:07 55.83198 47.58088 38869 ft 515 kts 112°
2026-05-05 16:08 55.80573 47.69815 38863 ft 515 kts 113°
2026-05-05 16:08 55.77918 47.81609 38867 ft 513 kts 112°
2026-05-05 16:09 55.75264 47.93337 38867 ft 513 kts 112°
2026-05-05 16:09 55.72605 48.05029 38870 ft 513 kts 113°
2026-05-05 16:10 55.69946 48.16655 38876 ft 512 kts 112°
2026-05-05 16:10 55.67262 48.28320 38880 ft 512 kts 112°
2026-05-05 16:11 55.64567 48.39975 38876 ft 513 kts 112°
2026-05-05 16:12 55.59145 48.63244 38885 ft 511 kts 112°
2026-05-05 16:13 55.52335 48.92128 38885 ft 511 kts 113°
2026-05-05 16:13 55.49612 49.03571 38890 ft 510 kts 113°
2026-05-05 16:14 55.44098 49.26556 38892 ft 511 kts 113°
2026-05-05 16:15 55.38546 49.49463 38914 ft 510 kts 113°
2026-05-05 16:16 55.32958 49.72282 38909 ft 508 kts 114°
2026-05-05 16:17 55.28763 49.89259 38928 ft 508 kts 114°
2026-05-05 16:18 55.24513 50.06323 38930 ft 508 kts 114°
2026-05-05 16:19 55.20248 50.23315 38925 ft 508 kts 114°
2026-05-05 16:19 55.15973 50.40219 38928 ft 508 kts 114°
2026-05-05 16:20 55.10250 50.62645 38941 ft 508 kts 114°
2026-05-05 16:22 55.03227 50.90825 38892 ft 509 kts 108°
2026-05-05 16:23 54.98682 51.14201 38906 ft 510 kts 109°
2026-05-05 16:23 54.95212 51.31574 38918 ft 509 kts 109°
2026-05-05 16:24 54.92860 51.43194 38913 ft 508 kts 109°
2026-05-05 16:25 54.89324 51.60498 38924 ft 508 kts 109°
2026-05-05 16:25 54.85753 51.77795 38898 ft 508 kts 110°
2026-05-05 16:26 54.80937 52.00875 38927 ft 510 kts 110°
2026-05-05 16:27 54.79732 52.06609 38764 ft 513 kts 109°
2026-05-05 16:27 54.78508 52.12413 38358 ft 510 kts 109°
2026-05-05 16:27 54.77306 52.18103 37894 ft 505 kts 109°
2026-05-05 16:27 54.76107 52.23756 37374 ft 499 kts 109°
2026-05-05 16:28 54.74929 52.29298 36846 ft 495 kts 109°
2026-05-05 16:28 54.73742 52.34861 36612 ft 483 kts 109°
2026-05-05 16:28 54.72593 52.40235 36396 ft 472 kts 109°
2026-05-05 16:28 54.71475 52.45452 35970 ft 470 kts 109°
2026-05-05 16:29 54.70322 52.50819 35520 ft 474 kts 109°
2026-05-05 16:29 54.69179 52.56129 35070 ft 475 kts 108°
2026-05-05 16:29 54.68019 52.61496 34612 ft 472 kts 108°
2026-05-05 16:29 54.66883 52.66743 34102 ft 468 kts 109°
2026-05-05 16:30 54.65763 52.71901 33583 ft 463 kts 109°
2026-05-05 16:30 54.64638 52.77068 33055 ft 459 kts 109°
2026-05-05 16:30 54.63644 52.82251 32537 ft 453 kts 104°
2026-05-05 16:30 54.63414 52.83698 32395 ft 452 kts 103°